Wetbulb
76.13 76.58 76.70 76.28 76.13 76.80 76.61 77.85 78.81 79.77 80.19 79.97 79.36 77.57 76.30 74.81 74.85 75.00 73.64 70.57 66.97 66.73 66.88 65.45 64.64 64.75 63.46 63.76 63.06 62.69 60.48 59.27 54.91 56.24 58.10 59.58 59.30 61.91 60.81 60.44 60.62 60.48 60.15
76.69 76.94 76.29 76.61 76.24 76.32 76.95 77.27 78.23 78.46 79.43 79.28 79.45 76.76 75.28 74.63 74.50 73.76 72.00 68.47 66.97 66.24 65.79 65.02 63.57 62.41 64.01 64.86 61.82 62.78 61.21 60.11 56.86 54.26 57.49 56.22 58.82 59.70 59.75 59.21 60.67 59.29 59.81
76.88 76.88 76.38 76.44 76.33 76.27 76.75 77.27 78.37 78.70 78.79 78.72 78.54 76.69 75.20 74.42 73.86 73.32 71.84 68.14 66.48 66.09 64.54 64.11 62.74 62.63 62.66 61.56 60.42 59.62 58.23 56.89 55.93 55.36 53.57 56.44 57.42 59.55 56.37 57.76 57.73 57.96 58.87
76.32 76.37 76.55 75.91 76.27 76.55 77.22 77.74 78.19 79.26 78.49 78.61 77.79 76.39 75.30 74.73 73.56 72.11 69.48 67.90 66.80 65.46 64.36 63.61 62.36 61.06 58.87 57.91 56.98 56.56 55.18 54.90 54.25 52.46 52.55 53.28 54.79 56.39 56.25 55.20 54.04 55.83 56.58
75.98 76.02 75.83 76.69 77.08 76.97 77.25 77.81 78.64 78.61 78.37 78.07 76.62 75.18 75.11 73.54 71.36 70.68 68.48 67.46 66.82 64.81 64.42 63.35 61.15 57.92 55.09 56.39 55.64 56.02 55.56 53.76 53.34 52.27 52.00 51.70 51.57 52.91 52.94 54.47 52.68 54.18 54.62
75.73 75.62 76.36 76.99 77.13 77.01 77.79 77.45 78.74 78.23 77.24 77.17 75.73 74.73 73.24 71.43 63.41 65.32 67.36 66.72 66.00 65.23 63.95 62.67 59.97 58.00 58.06 57.83 57.66 56.62 55.91 54.67 54.38 53.08 52.26 51.16 52.08 51.21 53.90 53.07 52.41 51.71 50.30
75.77 75.92 76.50 77.30 76.70 77.20 77.32 78.05 77.46 77.41 77.78 77.03 75.43 73.83 71.05 68.81 60.22 60.96 62.36 67.64 65.28 64.92 64.88 63.31 61.25 59.02 60.23 56.03 55.88 56.22 58.10 58.68 57.13 55.86 54.03 53.76 50.93 52.40 54.18 53.12 53.00 53.05 52.64
75.47 76.12 76.71 77.05 77.01 77.59 77.40 77.60 77.63 77.71 76.87 76.06 74.20 72.78 70.53 67.32 58.68 58.30 60.35 66.17 65.81 65.12 64.40 63.33 61.98 57.70 52.85 52.85 52.42 54.28 57.56 57.68 56.11 56.11 54.85 53.58 53.67 54.85 56.53 55.06 54.60 54.39 55.11
74.76 76.01 76.76 77.13 77.40 77.30 76.95 77.03 77.76 78.01 76.50 75.23 73.09 71.50 69.48 64.68 56.52 56.61 58.98 64.93 63.96 63.84 63.42 62.36 60.89 55.83 50.94 50.31 52.10 53.94 55.86 56.00 54.90 55.09 56.16 55.49 54.81 54.61 54.37 53.51 51.44 52.51 50.87
75.45 75.68 77.33 77.58 77.71 77.11 77.59 77.42 78.20 78.19 75.73 73.23 71.66 70.49 66.05 64.15 54.84 54.66 56.72 62.91 63.06 61.98 63.10 57.27 53.24 55.35 50.02 49.40 51.21 52.54 53.69 51.78 50.80 51.24 53.13 55.68 57.03 58.01 56.83 56.25 54.61 52.73 50.60
76.38 77.11 77.52 78.03 77.58 77.87 78.12 78.60 78.63 75.33 73.07 71.23 69.25 68.51 67.49 65.10 57.97 53.41 54.07 60.91 63.07 61.94 59.95 59.46 54.38 50.55 48.83 48.90 48.59 51.46 52.08 49.91 50.29 51.54 52.93 56.37 56.33 55.49 56.01 57.55 57.27 55.29 51.63
77.65 77.28 77.92 78.28 78.27 78.28 78.74 78.93 76.36 73.57 71.61 70.23 68.14 66.49 65.57 63.57 56.73 52.66 54.45 54.09 56.03 61.01 59.76 58.90 52.56 49.36 47.94 48.36 48.65 50.66 48.59 49.50 51.35 53.79 54.46 53.65 53.69 53.59 54.36 54.79 57.57 58.00 56.78
77.91 78.03 78.17 78.39 78.92 78.59 78.91 77.87 74.02 73.57 69.62 67.75 66.05 64.42 63.81 63.37 59.94 52.28 51.55 52.33 52.57 56.98 58.08 55.08 49.54 47.67 47.67 48.08 48.55 48.96 49.95 51.77 54.66 52.65 53.01 52.99 54.02 55.04 57.00 55.37 54.47 56.07 55.74
78.06 78.35 78.33 78.59 78.49 78.56 79.19 76.45 73.88 71.41 68.33 66.58 64.87 63.95 64.08 62.98 60.09 56.15 54.42 54.52 52.46 54.44 53.08 52.40 51.56 52.18 52.28 53.19 52.12 51.49 51.68 54.12 54.35 53.85 53.36 54.35 55.00 54.25 53.06 53.15 51.72 53.12 51.96
79.03 78.46 78.33 78.80 77.39 77.78 78.03 75.27 73.83 72.24 68.15 67.16 65.98 65.72 64.92 62.68 60.34 54.18 52.93 54.09 54.70 53.36 56.44 56.49 53.67 53.44 52.91 53.72 54.79 56.27 55.89 56.79 55.16 54.33 53.69 53.20 52.89 52.98 52.58 52.25 53.07 51.65 49.63
78.38 77.95 77.80 78.14 77.39 77.23 74.66 65.05 51.40 60.84 55.56 54.81 55.28 63.74 66.13 59.53 48.53 47.39 48.31 46.61 46.88 47.57 54.51 55.56 54.76 55.93 56.96 56.83 54.95 54.39 55.97 56.02 54.87 53.86 54.10 53.47 52.41 51.94 51.12 51.84 52.24 51.15 48.75
77.97 77.88 77.72 75.17 76.98 73.78 72.66 70.86 68.90 56.97 47.51 50.14 49.81 50.41 52.09 50.68 46.02 44.81 44.70 43.39 44.85 48.20 54.78 53.75 56.25 58.44 57.39 56.54 54.86 54.30 54.51 55.40 55.58 55.56 53.77 53.47 52.54 52.02 50.87 51.14 50.24 49.88 48.64
78.84 66.78 77.52 76.56 76.76 73.08 72.78 71.57 69.87 64.02 63.30 60.66 48.64 50.59 42.95 42.83 42.44 41.72 42.57 45.81 48.41 48.37 52.72 53.14 57.82 58.09 56.75 55.97 54.41 54.98 55.03 55.13 54.33 53.92 53.82 53.51 52.73 51.61 50.97 49.85 49.59 48.66 47.91
78.71 77.56 77.10 76.52 75.59 72.33 73.95 71.13 68.29 67.30 66.82 62.97 50.87 46.73 42.95 41.02 41.31 41.87 43.86 53.55 51.67 50.63 50.97 53.80 58.88 58.11 56.86 55.75 55.24 55.40 54.79 54.70 52.85 53.09 54.13 53.07 52.71 51.59 50.25 49.94 49.16 46.98 47.40
77.75 69.86 72.35 76.03 73.91 72.74 73.06 70.81 68.41 67.21 66.53 60.59 56.68 53.01 48.38 46.91 49.60 49.34 51.84 52.96 52.26 52.27 53.37 53.37 57.33 57.52 57.46 55.84 55.67 55.51 54.64 53.84 54.06 53.86 53.08 53.12 53.26 51.24 49.92 49.39 49.11 47.38 47.55
77.01 76.25 71.28 74.96 73.33 72.46 71.48 70.06 69.29 66.69 65.23 61.51 59.38 54.70 48.03 54.48 53.19 51.06 50.50 51.24 54.28 55.54 57.14 56.69 56.02 56.66 56.27 55.71 55.34 54.46 53.34 52.61 53.37 52.58 52.07 52.11 52.78 49.47 50.34 49.43 48.96 48.45 47.11
76.63 75.85 74.41 74.02 71.84 71.39 70.60 70.52 68.71 67.34 67.45 63.47 62.59 53.47 45.27 56.63 54.65 52.47 51.71 52.42 54.58 58.79 58.94 58.00 56.57 55.35 54.46 53.51 53.76 53.51 52.33 52.77 52.30 51.80 51.33 51.69 50.93 49.44 49.41 48.36 48.01 47.97 46.65
75.56 74.24 73.83 73.48 72.03 67.54 69.77 70.95 69.61 68.90 68.33 65.29 63.46 53.75 52.49 55.41 55.36 53.98 53.17 53.62 55.18 58.50 58.61 57.00 56.40 54.97 54.00 53.56 54.15 53.26 52.23 51.66 52.02 52.06 51.91 50.88 49.70 48.76 49.62 47.64 47.50 47.15 45.05
72.23 72.51 72.37 72.19 70.93 71.36 70.20 70.30 69.09 62.93 66.44 65.08 60.05 55.56 54.59 55.75 56.17 54.94 55.08 55.49 57.85 57.61 57.24 56.52 56.63 54.07 53.45 52.72 52.85 52.51 51.23 51.65 52.63 51.82 52.55 51.23 49.61 47.81 48.72 47.91 47.34 48.02 47.38
68.98 70.90 70.55 70.00 69.33 70.11 69.28 69.06 68.35 67.34 65.42 63.34 57.93 55.91 56.54 56.50 56.18 56.22 56.88 57.74 57.20 56.69 56.38 56.03 56.06 54.02 53.33 54.21 51.00 47.11 37.41 32.96 45.89 38.97 50.97 50.26 50.73 48.97 47.47 47.98 47.95 47.72 47.93
66.22 67.83 68.89 68.74 68.55 70.08 70.47 68.14 68.27 65.91 64.51 62.42 59.29 55.84 55.80 55.37 54.91 58.19 58.10 57.50 56.43 56.05 55.63 55.28 54.89 53.62 53.51 52.62 47.97 37.16 33.83 33.22 40.03 34.71 44.82 49.64 50.19 46.94 46.36 47.81 48.63 47.33 47.54
MSLP
1010.62 1011.30 1011.93 1012.55 1013.15 1013.62 1013.86 1013.85 1013.87 1014.04 1014.27 1014.49 1014.74 1015.04 1015.53 1015.98 1016.31 1016.45 1016.71 1016.86 1017.15 1017.61 1017.77 1017.99 1018.08 1018.16 1018.21 1018.07 1018.00 1017.89 1017.91 1017.76 1017.81 1017.37 1017.02 1016.35 1015.86 1015.44 1015.12 1014.96 1014.61 1014.23 1013.75
1009.77 1010.50 1011.17 1011.80 1012.37 1012.81 1013.13 1013.28 1013.49 1013.73 1013.98 1014.34 1014.63 1015.05 1015.49 1015.89 1016.28 1016.48 1016.61 1016.72 1016.98 1017.31 1017.61 1017.97 1018.13 1018.24 1018.24 1018.20 1018.27 1018.14 1018.12 1017.86 1017.95 1017.69 1017.01 1016.59 1015.93 1015.41 1015.48 1015.09 1014.51 1014.08 1013.68
1009.01 1009.78 1010.39 1010.90 1011.46 1011.88 1012.28 1012.62 1012.88 1013.30 1013.79 1014.09 1014.44 1014.81 1015.23 1015.67 1016.07 1016.46 1016.55 1016.78 1016.95 1017.22 1017.53 1017.84 1018.09 1018.27 1018.43 1018.59 1018.66 1018.47 1018.36 1018.32 1018.12 1017.73 1017.31 1016.49 1016.04 1015.85 1015.49 1015.09 1014.93 1014.41 1013.71
1008.21 1008.98 1009.49 1010.03 1010.48 1011.01 1011.53 1011.88 1012.44 1012.94 1013.13 1013.24 1013.74 1014.31 1014.76 1015.21 1015.76 1016.20 1016.64 1016.91 1017.05 1017.34 1017.61 1017.99 1018.07 1018.37 1018.69 1018.85 1018.77 1018.84 1018.91 1018.75 1018.29 1018.02 1017.57 1017.03 1016.54 1016.23 1016.07 1015.77 1015.17 1014.73 1014.01
1007.34 1008.06 1008.56 1009.13 1009.71 1010.36 1010.83 1011.22 1011.80 1012.03 1012.32 1012.52 1013.11 1013.50 1014.32 1015.11 1015.43 1015.93 1016.49 1016.83 1017.14 1017.36 1017.57 1017.81 1018.05 1018.47 1018.66 1018.86 1018.94 1018.97 1018.89 1018.85 1018.57 1018.25 1017.94 1017.45 1017.26 1017.03 1016.65 1016.21 1015.83 1015.11 1014.33
1006.39 1007.03 1007.80 1008.48 1009.05 1009.64 1010.07 1010.57 1010.99 1011.16 1010.77 1011.80 1012.41 1013.18 1013.91 1014.79 1015.13 1015.51 1016.15 1016.57 1016.94 1017.15 1017.45 1017.64 1017.91 1018.18 1018.46 1018.66 1018.87 1018.90 1018.80 1018.83 1018.59 1018.27 1018.11 1017.97 1017.57 1017.29 1016.82 1016.58 1016.06 1015.45 1014.67
1005.56 1006.34 1007.04 1007.72 1008.35 1008.89 1009.31 1009.76 1010.10 1010.45 1011.05 1011.74 1012.37 1012.95 1013.83 1014.75 1015.09 1015.40 1015.87 1016.36 1016.75 1016.98 1017.13 1017.45 1017.59 1017.91 1018.12 1018.47 1018.73 1018.63 1018.17 1017.89 1017.90 1017.91 1017.96 1017.80 1017.35 1017.01 1016.73 1016.31 1016.05 1015.67 1014.95
1004.75 1005.49 1006.21 1006.86 1007.49 1008.15 1008.58 1008.96 1009.44 1009.87 1010.60 1011.36 1012.19 1012.85 1013.64 1014.56 1015.03 1015.49 1015.94 1016.37 1016.64 1016.69 1016.91 1017.25 1017.43 1017.87 1018.34 1018.65 1018.75 1018.53 1017.96 1017.60 1017.29 1017.51 1017.44 1017.09 1016.70 1016.38 1016.18 1016.12 1016.02 1015.40 1014.43
1003.88 1004.42 1005.13 1005.85 1006.59 1007.28 1007.72 1008.15 1008.58 1009.24 1010.10 1010.82 1011.73 1012.63 1013.39 1014.29 1014.95 1015.44 1015.92 1016.28 1016.41 1016.69 1016.87 1017.05 1017.35 1018.15 1018.58 1018.78 1018.83 1018.54 1018.04 1017.51 1017.16 1017.05 1016.72 1016.35 1015.97 1015.77 1015.54 1016.02 1015.90 1015.36 1014.35
1002.69 1003.17 1003.99 1004.79 1005.50 1006.13 1006.69 1007.20 1007.70 1008.41 1009.47 1010.44 1011.37 1012.29 1013.07 1014.01 1014.70 1015.25 1015.72 1015.84 1016.02 1016.38 1016.67 1017.16 1017.58 1017.95 1018.45 1018.60 1018.70 1018.57 1018.21 1017.77 1017.55 1017.08 1016.48 1015.81 1015.29 1014.79 1014.64 1015.58 1015.49 1015.21 1014.46
1001.79 1002.55 1003.18 1003.75 1004.40 1004.98 1005.69 1006.36 1007.11 1008.16 1009.29 1010.12 1010.98 1011.93 1012.77 1013.62 1014.64 1015.21 1015.50 1015.72 1015.53 1015.83 1016.21 1016.63 1017.25 1017.78 1018.15 1018.32 1018.53 1018.45 1018.08 1017.81 1017.42 1016.91 1016.19 1015.18 1014.89 1014.82 1014.86 1014.69 1014.42 1014.27 1013.82
1001.06 1001.72 1002.33 1003.02 1003.73 1004.42 1005.10 1005.83 1006.77 1007.85 1008.83 1009.74 1011.05 1012.05 1012.77 1013.49 1014.21 1014.94 1015.37 1015.74 1015.73 1015.75 1015.58 1015.75 1016.78 1017.45 1017.87 1017.99 1018.17 1017.95 1017.67 1017.48 1017.03 1016.30 1015.81 1015.55 1015.27 1015.00 1014.78 1014.43 1013.97 1013.62 1013.15
1000.03 1000.61 1001.34 1002.25 1002.97 1003.57 1004.36 1005.15 1006.33 1007.29 1008.44 1009.54 1010.53 1011.47 1012.21 1013.21 1014.16 1014.47 1014.94 1015.43 1015.69 1015.73 1015.60 1015.85 1016.68 1017.21 1017.52 1017.69 1017.61 1017.44 1017.29 1017.15 1016.51 1016.31 1015.94 1015.79 1015.41 1015.05 1014.66 1014.31 1013.84 1013.20 1012.75
999.20 999.73 1000.40 1001.25 1002.04 1002.75 1003.69 1004.63 1005.56 1006.53 1007.57 1008.59 1009.30 1010.17 1010.66 1011.95 1012.94 1014.17 1014.74 1015.25 1015.42 1015.57 1016.03 1016.44 1016.66 1016.97 1017.18 1017.15 1016.95 1016.83 1016.95 1016.61 1016.25 1016.19 1016.09 1015.67 1015.35 1014.96 1014.76 1014.38 1014.00 1013.37 1012.89
998.31 998.99 999.65 1000.25 1001.19 1001.95 1002.92 1003.95 1004.60 1005.55 1006.14 1007.30 1008.34 1008.43 1009.33 1010.51 1011.59 1012.78 1013.64 1014.15 1014.68 1014.97 1015.57 1015.87 1016.37 1016.64 1016.60 1016.47 1016.35 1015.87 1015.92 1015.90 1016.01 1015.97 1015.91 1015.67 1015.34 1015.15 1014.86 1014.41 1013.85 1013.53 1013.41
997.59 998.15 998.66 999.39 1000.33 1001.10 1002.47 1004.40 1004.80 1004.73 1005.22 1005.97 1006.10 1007.34 1007.87 1008.87 1010.51 1012.18 1013.19 1013.78 1014.26 1014.57 1015.23 1015.45 1015.64 1015.63 1015.47 1015.44 1015.59 1015.68 1015.62 1015.73 1015.91 1016.01 1015.87 1015.72 1015.50 1015.22 1014.93 1014.35 1013.83 1013.58 1013.41
996.47 997.17 997.85 998.57 999.28 1000.62 1001.67 1003.09 1004.62 1006.16 1006.14 1005.98 1007.09 1008.13 1008.37 1008.36 1009.57 1011.47 1012.81 1013.47 1013.94 1014.33 1014.65 1014.78 1014.65 1014.58 1014.81 1015.04 1015.23 1015.34 1015.45 1015.59 1015.78 1015.86 1015.82 1015.72 1015.60 1015.39 1014.93 1014.40 1014.07 1013.79 1013.43
995.85 996.37 996.95 997.72 998.13 999.97 1001.04 1002.27 1003.40 1004.67 1005.95 1006.78 1007.35 1007.77 1008.00 1009.91 1010.05 1011.23 1012.28 1013.13 1013.95 1014.04 1014.06 1014.02 1013.77 1014.00 1014.57 1014.81 1014.99 1015.09 1015.25 1015.62 1015.79 1015.94 1015.75 1015.57 1015.63 1015.46 1015.08 1014.62 1014.13 1013.84 1013.52
995.37 995.67 996.24 996.88 997.91 999.01 999.84 1001.41 1002.77 1004.07 1005.27 1006.52 1007.81 1008.46 1008.90 1010.19 1010.50 1011.06 1011.74 1012.29 1013.03 1013.25 1013.30 1013.25 1013.23 1013.53 1013.95 1014.32 1014.72 1015.19 1015.64 1015.62 1015.56 1015.63 1015.45 1015.41 1015.27 1015.12 1014.71 1014.35 1014.18 1013.89 1013.71
995.10 995.27 995.65 996.34 997.44 998.55 998.85 1000.06 1001.36 1002.73 1003.54 1005.15 1007.81 1009.00 1009.15 1010.31 1010.88 1011.24 1011.19 1011.53 1011.99 1012.30 1012.46 1012.45 1012.52 1012.98 1013.69 1014.32 1014.64 1014.91 1015.14 1015.12 1015.14 1015.19 1015.23 1015.25 1015.24 1015.03 1014.67 1014.41 1014.22 1014.14 1014.21
994.81 995.03 995.33 996.05 996.81 997.86 998.34 999.17 1000.36 1001.43 1001.42 1002.66 1005.15 1006.56 1008.30 1008.92 1009.47 1010.19 1010.52 1010.87 1011.05 1010.93 1011.09 1011.39 1012.11 1012.83 1013.49 1014.11 1014.50 1014.73 1014.79 1014.83 1014.99 1015.33 1015.26 1014.91 1014.62 1014.75 1014.56 1014.42 1014.27 1014.27 1014.51
994.30 994.34 995.05 995.59 996.87 997.89 998.37 999.14 1000.25 1001.71 1003.05 1002.99 1004.63 1005.85 1007.47 1008.33 1008.67 1009.17 1009.69 1009.96 1010.37 1010.23 1010.35 1011.01 1011.65 1012.35 1013.07 1013.61 1013.95 1014.25 1014.45 1014.71 1015.09 1015.56 1015.53 1015.26 1014.93 1014.84 1014.67 1014.68 1014.48 1014.33 1014.53
993.97 993.88 994.66 995.37 996.27 997.37 998.26 998.87 999.93 1001.09 1001.90 1003.24 1004.33 1005.67 1006.95 1007.54 1007.82 1008.24 1008.78 1009.19 1009.63 1009.79 1009.99 1010.59 1011.26 1011.93 1012.46 1013.15 1013.66 1014.21 1014.23 1014.63 1015.20 1015.38 1015.63 1015.48 1015.31 1015.20 1014.63 1014.83 1014.69 1014.45 1014.83
994.58 994.00 994.65 995.38 996.00 996.69 997.59 998.37 999.36 1000.49 1001.37 1002.97 1003.97 1005.23 1006.43 1007.03 1006.97 1007.43 1007.88 1008.28 1008.67 1009.11 1009.82 1010.47 1010.93 1011.38 1012.35 1013.11 1013.66 1013.80 1014.49 1014.88 1015.17 1015.37 1015.32 1015.47 1015.39 1015.55 1015.14 1014.88 1014.67 1014.46 1014.43
995.51 994.42 994.92 995.64 996.33 996.85 997.57 998.35 999.42 1000.34 1001.51 1002.50 1003.34 1004.56 1005.64 1006.29 1006.43 1006.73 1007.51 1007.69 1008.29 1008.97 1009.62 1010.39 1010.75 1011.47 1012.35 1012.79 1013.53 1014.47 1015.19 1015.49 1015.57 1015.64 1015.60 1015.51 1015.51 1015.57 1015.41 1014.86 1014.69 1014.47 1014.39
996.79 996.43 996.27 996.15 996.47 997.05 998.03 999.09 999.69 1000.63 1001.17 1001.98 1002.48 1003.71 1004.70 1005.39 1005.91 1006.08 1007.03 1007.71 1008.31 1009.05 1009.55 1010.27 1010.79 1011.60 1012.34 1012.97 1013.98 1014.99 1015.43 1015.71 1015.90 1016.03 1015.98 1015.87 1015.63 1015.76 1015.84 1015.43 1014.97 1014.56 1014.51
Wind_Speed
16 14 13 13 12 11 10 8 6 5 4 4 5 7 7 6 4 3 1 4 4 3 1 3 2 2 3 4 4 3 4 3 4 4 5 5 6 4 3 4 6 7 5
15 13 14 13 13 13 11 11 9 8 7 6 5 7 6 6 5 4 5 4 5 5 4 1 3 3 3 3 4 4 4 4 3 6 4 5 6 4 4 6 5 7 7
15 14 15 14 14 14 13 12 9 8 6 7 7 6 7 6 6 4 2 2 2 3 4 2 1 2 3 4 4 4 4 4 5 4 6 3 3 4 6 6 6 8 8
16 16 15 16 15 14 12 12 9 7 8 8 9 8 7 6 5 5 4 2 3 4 3 1 2 4 4 4 4 5 5 5 5 5 5 4 3 5 5 6 8 7 8
17 17 17 15 14 13 12 10 10 10 10 10 11 9 8 7 7 6 5 5 4 5 4 4 6 5 5 2 2 3 4 3 4 4 4 4 5 7 7 6 7 8 9
17 18 15 15 13 13 11 12 11 13 16 12 12 11 10 7 6 12 6 5 6 5 5 4 7 8 7 9 7 7 9 4 5 3 3 4 4 6 5 5 6 7 7
16 16 15 14 15 14 13 12 14 13 9 10 11 11 9 6 6 10 8 3 5 5 5 4 4 6 2 5 6 9 11 13 14 3 4 5 6 5 6 7 6 6 9
15 16 15 16 16 15 14 14 14 13 12 11 10 10 10 7 10 9 8 3 3 4 4 4 2 7 5 4 5 6 6 6 3 5 6 7 7 8 6 4 7 10 8
17 17 17 17 16 16 16 16 14 13 12 12 11 11 10 8 11 10 8 6 6 5 4 3 3 7 6 5 4 6 6 5 6 11 11 14 15 17 17 2 7 7 9
19 20 18 17 17 18 17 17 14 12 12 11 11 10 10 9 11 11 9 6 8 6 5 6 5 5 7 4 2 5 5 5 6 9 11 12 12 10 15 5 5 6 7
17 16 17 18 18 18 16 14 13 13 12 12 11 10 10 10 11 13 11 5 4 6 7 8 6 11 9 6 5 5 5 5 9 8 9 4 5 5 3 3 5 4 6
16 16 16 16 14 13 16 14 14 15 14 12 11 8 6 8 11 12 11 9 3 3 6 5 8 12 10 9 6 11 8 6 6 6 4 4 3 4 4 5 5 6 6
15 16 15 16 15 14 16 15 13 14 12 11 10 9 9 9 7 13 11 9 7 3 4 9 14 11 10 7 12 13 8 5 3 4 3 4 3 4 5 5 7 8 7
15 15 15 16 16 14 13 13 13 12 12 12 12 12 10 10 10 8 8 6 6 5 8 6 7 7 8 6 3 7 5 5 2 3 4 4 4 4 4 4 7 4 4
14 14 15 14 16 14 13 12 13 13 13 13 12 13 14 12 12 12 11 9 7 7 7 4 3 4 6 7 6 3 3 1 2 3 4 4 3 4 3 6 4 5 5
14 14 14 13 14 11 13 7 10 11 16 15 14 13 11 14 21 20 13 13 12 13 5 5 7 7 5 1 1 1 2 2 3 3 4 4 3 4 4 6 4 3 6
16 15 13 14 14 12 12 13 12 5 9 9 9 8 5 13 25 21 15 13 13 11 5 5 5 4 3 2 2 1 1 3 1 2 3 4 4 4 7 5 5 4 4
16 15 14 14 12 13 12 12 10 10 12 7 7 8 17 18 23 22 20 14 5 2 5 6 5 4 3 3 2 1 3 3 4 3 4 3 4 5 5 5 5 4 5
13 12 14 12 11 13 12 12 11 11 10 8 6 9 11 13 20 20 18 9 8 7 7 7 4 5 4 4 3 3 3 2 1 3 2 3 3 4 4 4 5 7 7
13 14 13 11 11 13 12 13 13 13 13 12 7 8 10 10 11 11 9 9 9 8 8 8 5 5 4 3 4 3 3 3 2 0 2 3 4 4 4 4 5 5 6
10 10 14 10 11 12 10 13 12 12 16 16 14 15 17 12 11 11 10 9 7 9 8 6 8 6 5 4 3 4 4 3 4 3 2 3 2 3 4 4 4 5 5
9 10 12 11 10 11 10 10 8 9 11 12 12 15 22 10 10 11 10 10 9 7 5 6 6 8 6 7 5 3 2 2 4 3 4 5 3 4 4 5 5 4 6
10 9 11 10 12 12 11 11 11 12 10 10 10 13 13 10 10 11 11 10 10 7 5 6 5 7 6 6 4 3 1 5 4 3 4 4 4 5 3 4 7 5 7
10 7 10 9 9 10 10 9 9 10 10 11 10 12 11 11 10 12 11 11 10 8 7 6 4 9 9 6 5 4 6 5 4 5 5 6 4 7 6 4 7 6 6
11 4 5 5 6 6 8 8 9 11 10 10 12 12 11 11 9 11 11 10 9 9 9 8 4 12 11 8 11 11 7 8 7 2 4 5 5 7 7 3 6 6 7
10 9 6 3 6 5 6 3 5 7 8 10 11 12 11 10 9 8 9 9 9 9 11 7 10 13 12 9 14 12 7 6 5 6 3 4 3 5 5 6 7 5 7
Wind_Direction
189 190 192 192 199 206 219 233 214 222 232 217 217 138 140 155 183 192 133 165 126 130 199 75 43 321 11 350 346 15 334 35 307 319 303 304 310 277 331 297 296 283 298
185 188 190 187 196 202 210 216 214 212 206 206 181 150 148 165 190 211 220 129 176 196 135 78 51 10 351 27 343 10 308 327 350 304 295 313 283 325 2 325 317 333 311
181 190 188 190 195 203 203 212 212 202 201 212 159 163 157 179 183 214 241 193 174 105 103 142 93 18 20 21 343 347 8 350 313 302 302 310 324 33 343 336 351 322 327
182 188 193 196 197 200 205 200 201 189 193 201 173 166 178 172 182 182 180 203 144 123 119 84 91 61 47 13 315 19 11 323 327 333 331 330 353 354 348 343 338 337 326
183 190 197 198 195 200 197 201 180 193 198 181 173 169 169 183 195 172 172 176 182 161 155 203 118 139 176 224 329 8 301 330 331 338 323 321 348 357 328 340 332 314 325
186 195 194 195 195 196 199 191 183 190 210 169 177 168 168 182 154 141 174 174 180 186 176 198 172 172 212 220 234 264 270 273 279 290 302 320 312 317 329 327 314 326 326
190 193 194 192 195 196 196 187 193 193 190 183 176 167 162 168 152 129 135 215 174 193 185 189 262 138 92 48 1 317 281 242 237 252 281 288 293 287 292 302 299 300 293
194 194 193 194 194 192 193 197 195 194 184 177 173 169 172 160 155 155 156 232 193 168 185 188 189 101 73 45 339 302 322 319 31 214 248 268 261 268 261 266 294 296 296
202 198 196 195 192 190 194 197 196 190 183 177 169 175 176 155 159 167 160 186 181 187 190 70 70 107 105 68 324 317 310 334 335 326 294 272 269 266 262 310 291 309 321
203 204 195 194 192 193 192 195 195 184 179 169 167 174 178 156 172 186 183 203 169 188 168 142 145 117 143 124 315 308 313 311 324 311 302 293 279 261 261 194 252 278 305
207 200 199 195 194 193 191 191 185 169 168 168 166 172 180 165 186 200 196 229 198 192 187 173 166 158 170 186 220 263 270 305 295 282 278 285 2 1 35 224 246 265 284
199 204 199 196 194 190 188 186 167 170 172 168 163 170 176 178 178 201 201 227 334 270 216 122 136 163 189 205 220 249 266 290 274 284 326 348 350 338 317 299 294 287 278
197 199 196 192 192 189 184 174 170 174 162 161 174 176 185 175 184 179 179 195 239 287 30 126 142 175 205 221 238 255 274 280 324 325 341 327 317 309 321 322 324 298 307
202 195 189 189 188 187 183 172 173 174 165 170 181 194 182 176 176 182 188 198 204 151 125 138 169 190 225 273 258 222 235 249 294 290 330 307 321 335 323 342 317 320 321
199 194 192 189 185 184 180 180 182 182 173 176 186 187 186 182 184 172 177 178 179 179 165 150 180 214 228 231 240 201 218 188 335 15 307 316 330 333 329 324 308 326 350
198 195 192 186 183 176 169 149 47 180 174 184 178 184 181 165 149 158 179 169 170 164 183 201 204 221 209 191 136 250 256 112 63 321 318 332 336 336 325 314 330 354 332
200 195 191 193 184 171 174 175 177 34 61 128 173 173 186 152 149 153 152 140 151 141 188 221 235 192 177 157 154 235 20 90 223 309 339 330 342 335 321 322 326 354 327
202 196 196 195 179 169 177 181 178 172 173 158 70 149 136 143 138 139 136 120 142 154 190 232 205 167 151 162 178 134 69 4 51 4 303 353 347 323 319 326 330 333 333
200 200 197 189 165 174 172 170 167 177 172 152 124 84 109 123 138 143 151 163 173 186 197 236 218 142 160 152 137 113 104 272 159 258 318 3 324 310 315 322 334 344 6
212 217 189 186 162 178 176 170 169 177 174 149 167 146 142 140 158 163 173 175 184 189 199 210 155 141 137 116 126 147 212 210 189 236 33 334 307 322 316 351 342 358 37
217 206 185 189 170 181 172 176 182 185 180 159 169 161 165 171 166 168 178 188 210 200 200 174 146 141 132 142 177 185 216 224 99 54 2 302 314 350 324 7 344 14 39
214 210 184 198 153 181 177 182 168 172 198 160 173 149 164 186 172 172 181 187 205 227 162 142 156 150 178 181 159 191 185 116 80 30 332 312 27 9 352 9 339 16 48
221 197 175 205 162 171 173 184 171 181 180 165 169 148 167 193 178 176 183 186 194 203 144 145 178 150 120 115 126 149 264 96 97 73 326 344 19 355 356 25 348 3 86
312 171 178 205 159 173 170 178 158 168 164 175 142 153 169 196 186 186 179 183 182 158 143 145 194 143 128 137 141 181 84 63 32 38 20 336 63 356 344 38 349 2 21
334 146 165 170 157 166 157 164 164 162 166 169 145 160 175 189 219 174 182 177 153 152 148 156 166 128 137 156 105 106 105 86 77 31 8 357 44 38 341 20 359 1 24
20 19 37 64 138 122 115 147 136 172 171 173 155 161 170 180 210 186 169 155 151 155 151 165 144 140 147 115 107 112 114 104 92 67 9 333 30 67 343 349 12 12 10